KASHIWA (59508 NORAD) Tracking and Keplerian Element Data

This shows tracking and keplerian element data for the satellite.

Feedback or suggestion? Click here.




ElementValue
Catalog59508
NameKASHIWA
Epoch Orbit904
Epoch Day159.93197504
Epoch Year2024
RAAN358.322
Inclination51.6324
Eccentricity0.0008089
Argument of Perigee257.9575
Mean Anonmoly102.0514
Mean Motion15.64817528
Decay Rate0.00184446
L11 59508U 98067WH 24159.93197504 .00184446 00000+0 18160-2 0 9990
L22 59508 51.6324 358.3220 0008089 257.9575 102.0514 15.64817528 9041



Live tracking and technical data element details for KASHIWA (NORAD 59508). KASHIWA can be tracked NOW for your location showing map with azimuth and elevation plus other details from your city location.







IsCatalogInMostPopularTable: catalog: 59508, numindb: 41
Update: records affected: 1



GetName: 59508 KASHIWA

Hit Count: updated at: Thu, 23 Jan 2025 16:23:51 GMT